Nashua, NH

12:57 AM EST on December 13, 2019 (GMT -0500)
Boire

Weather History for KASH - June, 2019

Change the Weather History Date:

Wednesday, June 5, 2019

  Actual Average Record
Temperature  
Mean Temperature 68 °F -  
Max Temperature 81 °F 73 °F 91 °F (2005)
Min Temperature 54 °F 48 °F 32 °F (1964)
Cooling Degree Days 2    
Growing Degree Days 18 (Base 50)    
Moisture  
Dew Point 55 °F    
Average Humidity 68    
Maximum Humidity 100    
Minimum Humidity 46    
Precipitation  
Precipitation 0.31 in - - ()
Sea Level Pressure  
Sea Level Pressure 29.84 in    
Wind  
Wind Speed 3 mph ()    
Max Wind Speed 12 mph    
Max Gust Speed 17 mph    
Visibility 9.7 miles    
Events Rain    
Averages and records for this station are not official NWS values.
T = Trace of Precipitation, MM = Missing Value Source: Averaged Metar Reports

Daily Weather History Graph

Daily Weather History Graph

Search for Another Location

Airport or City:

Astronomy

Jun. 05, 2019 Rise Set
Actual Time 5:08 AM EDT 8:20 PM EDT
Civil Twilight 4:34 AM EDT 8:55 PM EDT
Nautical Twilight 3:49 AM EDT 9:39 PM EDT
Astronomical Twilight 2:56 AM EDT 10:33 PM EDT
Moon 7:11 AM EDT (6/5) 10:44 PM EDT (6/5)
Length of Visible Light 16h 20m
Length of Day
15h 11m
Waxing Crescent, 6% of the Moon is Illuminated
Jun 5
Waxing Crescent
Jun 10
First Quarter
Jun 17
Full
Jun 25
Last Quarter
Jul 2
New

Hourly Weather History & Observations

Time (EDT) Temp. Heat Index Dew Point Humidity Pressure Visibility Wind Dir Wind Speed Gust Speed Precip Events Conditions
12:56 AM 55.0 °F - 50.0 °F 83% 29.98 in 10.0 mi Calm Calm - 0.00 in   Overcast
1:56 AM 54.0 °F - 52.0 °F 93% 29.94 in 10.0 mi Calm Calm - 0.00 in   Overcast
2:56 AM 55.9 °F - 48.0 °F 75% 29.91 in 10.0 mi SE 4.6 mph - 0.00 in   Overcast
3:56 AM 55.0 °F - 50.0 °F 83% 29.88 in 10.0 mi Calm Calm - N/A   Mostly Cloudy
4:56 AM 55.9 °F - 50.0 °F 80% 29.86 in 10.0 mi Calm Calm - N/A   Mostly Cloudy
5:56 AM 55.9 °F - 52.0 °F 87% 29.87 in 10.0 mi Calm Calm - N/A   Clear
6:56 AM 59.0 °F - 53.1 °F 81% 29.88 in 10.0 mi Calm Calm - N/A   Scattered Clouds
7:56 AM 64.9 °F - 50.0 °F 58% 29.89 in 10.0 mi Variable 5.8 mph - N/A   Scattered Clouds
8:56 AM 68.0 °F - 52.0 °F 56% 29.88 in 10.0 mi Variable 4.6 mph 17.3 mph N/A   Partly Cloudy
9:56 AM 72.0 °F - 55.0 °F 55% 29.87 in 10.0 mi West 9.2 mph - N/A   Clear
10:56 AM 75.9 °F - 55.0 °F 48% 29.86 in 10.0 mi WSW 11.5 mph 17.3 mph N/A   Scattered Clouds
11:56 AM 78.1 °F - 55.9 °F 46% 29.86 in 10.0 mi WSW 9.2 mph 16.1 mph N/A   Scattered Clouds
12:56 PM 78.1 °F - 57.0 °F 48% 29.83 in 10.0 mi WSW 9.2 mph - N/A   Mostly Cloudy
1:56 PM 78.1 °F - 57.9 °F 50% 29.82 in 10.0 mi Calm Calm - N/A   Overcast
2:56 PM 80.1 °F 80.7 °F 59.0 °F 48% 29.81 in 10.0 mi Variable 3.5 mph - N/A   Overcast
3:56 PM 78.1 °F - 59.0 °F 52% 29.80 in 10.0 mi Calm Calm - N/A   Overcast
4:56 PM 80.1 °F 80.7 °F 59.0 °F 48% 29.78 in 10.0 mi Calm Calm - N/A   Scattered Clouds
5:56 PM 81.0 °F 81.3 °F 59.0 °F 47% 29.77 in 10.0 mi SE 3.5 mph - N/A   Partly Cloudy
6:56 PM 72.0 °F - 59.0 °F 64% 29.77 in 10.0 mi NE 6.9 mph - N/A   Scattered Clouds
7:56 PM 68.0 °F - 59.0 °F 73% 29.78 in 6.0 mi NE 4.6 mph - N/A   Haze
8:56 PM 66.9 °F - 57.9 °F 73% 29.78 in 10.0 mi East 3.5 mph - N/A   Partly Cloudy
9:56 PM 64.0 °F - 57.9 °F 80% 29.79 in 10.0 mi Variable 3.5 mph - 0.00 in   Mostly Cloudy
10:56 PM 61.0 °F - 59.0 °F 93% 29.79 in 7.0 mi NW 5.8 mph - 0.06 in Rain Heavy Rain
11:56 PM 57.9 °F - 57.9 °F 100% 29.75 in 10.0 mi NNW 3.5 mph - 0.25 in Rain Rain